Regional Weather Roundup
Issued by NWS

Home | Current Version | Previous Version | Graphics & Text | Print | Product List | Glossary On
Versions: 1 2 3 4 5 6 7 8 9 10 11 12 13 14 15 16 17 18 19 20 21 22 23 24 25 26 27 28 29 30 31 32 33 34 35 36 37 38 39 40 41 42 43 44 45 46 47 48 49 50
000
ASUS43 KDMX 280201
RWRIA

WEATHER ROUNDUP FOR IOWA
NATIONAL WEATHER SERVICE DES MOINES IA
900 PM CDT THU APR 27 2017

NOTE: "FAIR" INDICATES FEW OR NO CLOUDS BELOW 12,000 FEET WITH NO
SIGNIFICANT WEATHER AND/OR OBSTRUCTIONS TO VISIBILITY.

* - THESE STATIONS ARE NOT NWS STATIONS...THUS NOT UNDER NWS
QUALITY CONTROL.  THEY ALSO DO NOT REPORT WEATHER SUCH
AS PRECIPITATION OR FOG.

IAZ001>003-012>014-020>022-031>034-043>046-280300-
   NORTHWEST IOWA

CITY           SKY/WX    TMP DP  RH WIND       PRES   REMARKS
CARROLL *      CLEAR     43  34  70 NE9       29.77R
CHEROKEE *     CLEAR     40  34  79 E6        29.77R
DENISON *      CLOUDY    48  36  61 NE5       29.77R
LE MARS *      CLEAR     45  34  65 CALM      29.77R
ORANGE CITY *  CLEAR     45  36  70 E5        29.76R
SHELDON *      CLEAR     41  34  75 NE5       29.75R
SIOUX CITY     CLEAR     47  33  58 NE3       29.76R
SPENCER        CLEAR     37  31  78 CALM      29.78R
STORM LAKE *   CLEAR     39  32  75 E6        29.77R WCI  35
$$

IAZ055>058-069>071-079>083-090>094-280300-
   SOUTHWEST IOWA

CITY           SKY/WX    TMP DP  RH WIND       PRES   REMARKS
ATLANTIC *     CLOUDY    48  36  61 CALM      29.76R
AUDUBON *      PTCLDY    43  36  75 CALM      29.78R
CLARINDA *     CLOUDY    54  37  54 CALM      29.78R
COUNCIL BLFS * CLOUDY    52  36  54 E6        29.75R
CRESTON *      CLOUDY    50  34  53 N6        29.78R
HARLAN  *      CLOUDY    46  34  61 CALM      29.79R
LAMONI         CLOUDY    53  40  61 CALM      29.76R
RED OAK *      CLOUDY    52  36  54 CALM      29.76R
SHENANDOAH *   CLOUDY    55  36  47 CALM      29.76R
$$

IAZ047>049-059>061-072>074-084-280300-
   CENTRAL IOWA

CITY           SKY/WX    TMP DP  RH WIND       PRES   REMARKS
AMES           CLEAR     41  34  76 N7        29.78R
ANKENY *       CLEAR     43  34  70 N6        29.79R
BOONE *        CLEAR     41  32  70 N8        29.78R
CHARITON *     CLOUDY    52  37  58 N3        29.77R
DES MOINES     MOCLDY    49  34  56 N9        29.77R
GRINNELL*      PTCLDY    39  32  77 N6        29.80R WCI  34
KNOXVILLE *    MOCLDY    50  36  57 NE6       29.76R
MARSHALLTOWN   CLEAR     39  31  72 NW5       29.78R
NEWTON *       CLEAR     43  32  65 NE7       29.78R
PELLA *        PTCLDY    46  36  68 N8        29.79R
PERRY *          N/A     46  32  58 N7        29.77R
$$

IAZ004>006-015-016-023>025-035-036-280300-
   NORTH CENTRAL IOWA

CITY           SKY/WX    TMP DP  RH WIND       PRES   REMARKS
ALGONA *       CLOUDY    39  32  75 N7        29.79R WCI  34
CLARION *      CLOUDY    41  32  70 W8        29.80R
ESTHERVILLE    CLEAR     33  30  88 N7        29.77R WCI  27
FORT DODGE *   CLEAR     39  27  60 CALM      29.80R
MASON CITY     CLOUDY    36  29  75 NW9       29.79R WCI  29
FOREST CITY *  CLOUDY    36  27  69 NW8       29.78R WCI  29
WEBSTER CITY * CLEAR     36  30  80 N7        29.78R WCI  30
IOWA FALLS *     N/A     38  31  73 NW8       29.81R WCI  32
$$

IAZ007>011-017>019-026>030-037>042-050>054-066-280300-
   NORTHEAST IOWA

CITY           SKY/WX    TMP DP  RH WIND       PRES   REMARKS
CEDAR RAPIDS   CLEAR     38  34  85 NW6       29.79R WCI  33
CHARLES CITY * CLOUDY    37  30  75 NW10G17   29.78R WCI  30
CLINTON *      CLEAR     39  36  89 W7        29.81R WCI  34
DECORAH *      CLOUDY    37  28  70 W9G20     29.75R WCI  31
DUBUQUE          N/A     37  31  78 MISG      29.78R
MONTICELLO *   CLEAR     37  34  87 W5        29.79R WCI  34
WATERLOO       CLOUDY    41  29  62 W5        29.79R
$$

IAZ064-065-067-068-078-280300-
   EAST CENTRAL IOWA

CITY           SKY/WX    TMP DP  RH WIND       PRES   REMARKS
DAVENPORT      CLEAR     41  36  82 NW6       29.81R
IOWA CITY      CLEAR     45  34  65 N6        29.81R
MUSCATINE *    CLEAR     43  39  87 CALM      29.81R
QUAD CITIES    CLEAR     40  36  86 CALM      29.80R
$$

IAZ062-063-075>077-085>089-095>099-280300-
   SOUTHEAST IOWA

CITY           SKY/WX    TMP DP  RH WIND       PRES   REMARKS
BURLINGTON     CLOUDY    48  43  82 CALM      29.78R
FAIRFIELD *    PTCLDY    46  39  76 NE6       29.78R
FORT MADISON * PTCLDY    50  43  76 S3        29.79S
KEOKUK *       PTCLDY    50  45  81 SE5       29.78R
OSKALOOSA *      N/A     46  37  73 NE7       29.78R
CENTERVILLE *    N/A     52  37  58 CALM      29.78R
OTTUMWA        PTCLDY    49  41  74 E6        29.77R
WASHINGTON *   PTCLDY    45  39  81 N8        29.80R
$$

ABBREVIATIONS USED IN REMARKS
   TC - TEMPERATURES IN CELSIUS
  WCI - WIND CHILL INDEX
   HX - HEAT INDEX
  VSB - VISIBILITY
$$





USA.gov is the U.S. government's official web portal to all federal, state and local government web resources and services.